sat.trackr.live / text

‹ back to catalog

HULIANWANG DIGUI-120

NORAD 67060 · 2025-295B

PAYLOAD ACTIVE UNKNOWN

§ Identity

Operator
Country
PRC
Launch date
2025-12-11
Launch site
WSC
Launch vehicle
Mass (kg)
RCS (m²)

External: N2YO · Heavens-Above · Gunter

§ Orbital elements

Epoch: 2026-05-25T05:02:38.332896Z

Period
108.33 min
Inclination
50.0030°
Eccentricity
0.0000832
Mean motion
13.29327323 rev/d
Perigee alt
1,148.7 km
Apogee alt
1,149.9 km
Semi-major
7,527.4 km
B*
8.0466e-5
RAAN
108.0509°
Arg perigee
355.8972°
Mean anomaly
4.1893°
Rev number
2,244

§ Raw data

HULIANWANG DIGUI-1201 67060U 25295B   26145.21016589 -.00000087  00000+0  80466-4 0  99952 67060  50.0030 108.0509 0000832 355.8972   4.1893 13.29327323 22446

JSON: /api/v1/satellites/67060 · /tle

For live sub-satellite position, see the globe view (requires WebGL).

§ Visibility from observer

Set your observer location to see the next 7 days of passes ≥ 10°. The values pass through the URL so the page stays shareable.

No JS? Fill the form by hand. The geolocation button needs JavaScript.